When you browse on this site, cookies collect data to enhance your experience and personalize the content and advertising you see.
Visit our Privacy Policy to learn more. By continuing to use the site, you agree to this use of cookies and data.
  • In Österreich
  • Länderverzeichnis
  • Für 7 Tage
  • Wassertemperatur
  • Satellitenkarten
  • Wetterkarte
  • News
  • Widgets
  • user-avatar
    Anmelden

    Stündliche Wetter Yamagata

    Heute, 23 Juli, Dienstag

    Zeit Temperatur Niederschläge Wind Luftdruck Luftfeuchtigkeit
    00:00 +21°C° 0.4 mm 1 m/S 715 mmHg 98%
    01:00 +19°C° 0.1 mm 0 m/S 715 mmHg 98%
    02:00 +18°C° 0.1 mm 0 m/S 715 mmHg 98%
    03:00 +18°C° 0 mm 0 m/S 715 mmHg 98%
    04:00 +19°C° 0.1 mm 0 m/S 715 mmHg 98%
    05:00 +19°C° 0.1 mm 0 m/S 715 mmHg 98%
    06:00 +19°C° 0.1 mm 0 m/S 715 mmHg 97%
    07:00 +21°C° 0.1 mm 0 m/S 715 mmHg 93%
    08:00 +24°C° 0.1 mm 1 m/S 715 mmHg 89%
    09:00 +26°C° 0.1 mm 1 m/S 715 mmHg 85%
    10:00 +26°C° 0.5 mm 1 m/S 715 mmHg 83%
    11:00 +27°C° 0.5 mm 1 m/S 715 mmHg 81%
    12:00 +28°C° 0.5 mm 1 m/S 714 mmHg 79%
    13:00 +27°C° 1.8 mm 1 m/S 714 mmHg 81%
    14:00 +27°C° 1.8 mm 1 m/S 714 mmHg 83%
    15:00 +27°C° 1.8 mm 1 m/S 714 mmHg 86%
    16:00 +26°C° 1.4 mm 1 m/S 714 mmHg 88%
    17:00 +25°C° 1.4 mm 1 m/S 714 mmHg 91%
    18:00 +24°C° 1.4 mm 1 m/S 714 mmHg 94%
    19:00 +23°C° 0.5 mm 1 m/S 714 mmHg 95%
    20:00 +23°C° 0.5 mm 1 m/S 714 mmHg 96%
    21:00 +22°C° 0.5 mm 1 m/S 714 mmHg 98%
    22:00 +20°C° 0.4 mm 0 m/S 714 mmHg 98%
    23:00 +20°C° 0.4 mm 0 m/S 714 mmHg 98%

    Morgen, 24 Juli, Mittwoch

    Zeit Temperatur Niederschläge Wind Luftdruck Luftfeuchtigkeit
    00:00 +20°C° 0.4 mm 0 m/S 714 mmHg 98%
    01:00 +20°C° 0.1 mm 0 m/S 714 mmHg 98%
    02:00 +19°C° 0.1 mm 0 m/S 714 mmHg 98%
    03:00 +19°C° 0.1 mm 0 m/S 714 mmHg 98%
    04:00 +20°C° 0 mm 0 m/S 714 mmHg 98%
    05:00 +20°C° 0 mm 0 m/S 714 mmHg 97%
    06:00 +20°C° 0 mm 0 m/S 714 mmHg 97%
    07:00 +22°C° 0.1 mm 0 m/S 715 mmHg 91%
    08:00 +24°C° 0.1 mm 0 m/S 715 mmHg 85%
    09:00 +25°C° 0.1 mm 0 m/S 715 mmHg 79%
    10:00 +26°C° 0.8 mm 0 m/S 715 mmHg 77%
    11:00 +27°C° 0.8 mm 0 m/S 715 mmHg 75%
    12:00 +30°C° 0.8 mm 1 m/S 715 mmHg 73%
    13:00 +29°C° 1.7 mm 1 m/S 715 mmHg 76%
    14:00 +29°C° 1.7 mm 1 m/S 715 mmHg 78%
    15:00 +28°C° 1.7 mm 1 m/S 715 mmHg 81%
    16:00 +28°C° 0.8 mm 1 m/S 715 mmHg 83%
    17:00 +25°C° 0.8 mm 0 m/S 715 mmHg 86%
    18:00 +24°C° 0.8 mm 0 m/S 715 mmHg 89%
    19:00 +23°C° 0 mm 0 m/S 715 mmHg 91%
    20:00 +21°C° 0 mm 0 m/S 715 mmHg 92%
    21:00 +20°C° 0 mm 0 m/S 715 mmHg 94%
    22:00 +20°C° 0 mm 0 m/S 715 mmHg 94%
    23:00 +19°C° 0 mm 0 m/S 715 mmHg 94%

    übermorgen, 25 Juli, Donnerstag

    Zeit Temperatur Niederschläge Wind Luftdruck Luftfeuchtigkeit
    00:00 +19°C° 0 mm 0 m/S 715 mmHg 95%
    01:00 +19°C° 0 mm 0 m/S 715 mmHg 94%
    02:00 +19°C° 0 mm 0 m/S 715 mmHg 94%
    03:00 +20°C° 0 mm 1 m/S 715 mmHg 94%
    04:00 +19°C° 0 mm 0 m/S 715 mmHg 93%
    05:00 +20°C° 0 mm 0 m/S 716 mmHg 92%
    06:00 +20°C° 0 mm 0 m/S 716 mmHg 91%
    07:00 +23°C° 0 mm 0 m/S 716 mmHg 82%
    08:00 +25°C° 0 mm 0 m/S 717 mmHg 72%
    09:00 +27°C° 0 mm 0 m/S 717 mmHg 63%
    10:00 +29°C° 0 mm 0 m/S 717 mmHg 58%
    11:00 +32°C° 0 mm 1 m/S 717 mmHg 52%
    12:00 +33°C° 0 mm 1 m/S 717 mmHg 47%
    13:00 +33°C° 0 mm 1 m/S 717 mmHg 48%
    14:00 +33°C° 0 mm 1 m/S 717 mmHg 49%
    15:00 +33°C° 0 mm 1 m/S 716 mmHg 50%
    16:00 +31°C° 0.1 mm 1 m/S 716 mmHg 61%
    17:00 +29°C° 0.1 mm 1 m/S 716 mmHg 72%
    18:00 +27°C° 0.1 mm 1 m/S 716 mmHg 83%
    19:00 +26°C° 0 mm 1 m/S 717 mmHg 86%
    20:00 +25°C° 0 mm 1 m/S 717 mmHg 88%
    21:00 +22°C° 0 mm 0 m/S 717 mmHg 91%
    22:00 +21°C° 0 mm 0 m/S 717 mmHg 92%
    23:00 +21°C° 0 mm 0 m/S 716 mmHg 92%

    26 Juli, Freitag

    Zeit Temperatur Niederschläge Wind Luftdruck Luftfeuchtigkeit
    00:00 +21°C° 0 mm 0 m/S 716 mmHg 93%
    01:00 +21°C° 0 mm 0 m/S 716 mmHg 93%
    02:00 +20°C° 0 mm 0 m/S 716 mmHg 94%
    03:00 +20°C° 0 mm 0 m/S 716 mmHg 94%
    04:00 +21°C° 0 mm 0 m/S 716 mmHg 93%
    05:00 +21°C° 0 mm 0 m/S 716 mmHg 91%
    06:00 +22°C° 0 mm 0 m/S 716 mmHg 90%
    07:00 +24°C° 0 mm 0 m/S 717 mmHg 83%
    08:00 +26°C° 0 mm 0 m/S 717 mmHg 76%
    09:00 +28°C° 0 mm 0 m/S 717 mmHg 69%
    10:00 +31°C° 0.1 mm 1 m/S 717 mmHg 65%
    11:00 +32°C° 0.1 mm 1 m/S 717 mmHg 61%
    12:00 +33°C° 0.1 mm 1 m/S 717 mmHg 57%
    13:00 +33°C° 0.5 mm 1 m/S 716 mmHg 58%
    14:00 +33°C° 0.5 mm 1 m/S 716 mmHg 59%
    15:00 +32°C° 0.5 mm 1 m/S 716 mmHg 60%
    16:00 +31°C° 0.5 mm 1 m/S 716 mmHg 69%
    17:00 +29°C° 0.5 mm 1 m/S 716 mmHg 77%
    18:00 +26°C° 0.5 mm 0 m/S 716 mmHg 86%
    19:00 +26°C° 0.2 mm 1 m/S 716 mmHg 88%
    20:00 +25°C° 0.2 mm 1 m/S 716 mmHg 90%
    21:00 +24°C° 0.2 mm 1 m/S 716 mmHg 92%
    22:00 +24°C° 0 mm 1 m/S 716 mmHg 93%
    23:00 +23°C° 0 mm 1 m/S 716 mmHg 93%

    27 Juli, Samstag

    Zeit Temperatur Niederschläge Wind Luftdruck Luftfeuchtigkeit
    00:00 +23°C° 0 mm 1 m/S 716 mmHg 94%
    01:00 +23°C° 0 mm 1 m/S 716 mmHg 94%
    02:00 +23°C° 0 mm 1 m/S 716 mmHg 94%
    03:00 +20°C° 0 mm 0 m/S 716 mmHg 94%
    04:00 +23°C° 0 mm 1 m/S 716 mmHg 93%
    05:00 +24°C° 0 mm 1 m/S 716 mmHg 92%
    06:00 +24°C° 0 mm 1 m/S 716 mmHg 91%
    07:00 +26°C° 0.2 mm 1 m/S 717 mmHg 84%
    08:00 +28°C° 0.2 mm 1 m/S 717 mmHg 77%
    09:00 +30°C° 0.2 mm 1 m/S 717 mmHg 70%
    10:00 +30°C° 1.9 mm 1 m/S 717 mmHg 74%
    11:00 +30°C° 1.9 mm 1 m/S 717 mmHg 77%
    12:00 +28°C° 1.9 mm 0 m/S 717 mmHg 81%
    13:00 +30°C° 2.4 mm 1 m/S 717 mmHg 81%
    14:00 +30°C° 2.4 mm 1 m/S 716 mmHg 82%
    15:00 +29°C° 2.4 mm 1 m/S 716 mmHg 83%
    16:00 +27°C° 1.2 mm 0 m/S 716 mmHg 86%
    17:00 +26°C° 1.2 mm 0 m/S 716 mmHg 89%
    18:00 +25°C° 1.2 mm 0 m/S 716 mmHg 91%
    19:00 +24°C° 0.3 mm 0 m/S 717 mmHg 92%
    20:00 +23°C° 0.3 mm 0 m/S 717 mmHg 93%
    21:00 +22°C° 0.3 mm 0 m/S 717 mmHg 93%
    22:00 +22°C° 0.1 mm 0 m/S 717 mmHg 93%
    23:00 +22°C° 0.1 mm 0 m/S 716 mmHg 94%

    28 Juli, Sonntag

    Zeit Temperatur Niederschläge Wind Luftdruck Luftfeuchtigkeit
    00:00 +22°C° 0.1 mm 0 m/S 716 mmHg 94%
    01:00 +22°C° 0.3 mm 0 m/S 716 mmHg 94%
    02:00 +22°C° 0.3 mm 0 m/S 716 mmHg 95%
    03:00 +21°C° 0.3 mm 0 m/S 716 mmHg 95%
    04:00 +22°C° 0.3 mm 0 m/S 716 mmHg 95%
    05:00 +22°C° 0.3 mm 0 m/S 716 mmHg 94%
    06:00 +23°C° 0.3 mm 0 m/S 716 mmHg 94%
    07:00 +24°C° 0.2 mm 0 m/S 717 mmHg 90%
    08:00 +27°C° 0.2 mm 1 m/S 717 mmHg 86%
    09:00 +28°C° 0.2 mm 1 m/S 717 mmHg 82%
    10:00 +28°C° 0.7 mm 1 m/S 717 mmHg 82%
    11:00 +29°C° 0.7 mm 1 m/S 717 mmHg 82%
    12:00 +29°C° 0.7 mm 1 m/S 717 mmHg 82%
    13:00 +29°C° 0.8 mm 1 m/S 716 mmHg 83%
    14:00 +28°C° 0.8 mm 1 m/S 716 mmHg 84%
    15:00 +28°C° 0.8 mm 1 m/S 716 mmHg 86%
    16:00 +28°C° 0.5 mm 1 m/S 716 mmHg 88%
    17:00 +27°C° 0.5 mm 1 m/S 716 mmHg 91%
    18:00 +26°C° 0.5 mm 1 m/S 716 mmHg 93%
    19:00 +26°C° 0.3 mm 1 m/S 716 mmHg 94%
    20:00 +23°C° 0.3 mm 0 m/S 716 mmHg 95%
    21:00 +22°C° 0.3 mm 0 m/S 716 mmHg 96%
    22:00 +22°C° 0.2 mm 0 m/S 715 mmHg 96%
    23:00 +22°C° 0.2 mm 0 m/S 715 mmHg 96%
    Mehr zeigen